| time (UTC) | temp F | wind direction | speed MPH | gust MPH | rain 1hr in | rain 24hr in | rain mn in | humidity % | barometer mb |
| 20260906062037 | 73 | 253 | 0.0 | 0.0 | 0.00 | 0.00 | 0.00 | 49 | 1017.2 |
| 20260906061531 | 73 | 253 | 0.0 | 0.0 | 0.00 | 0.00 | 0.00 | 49 | 1017.3 |
| 20260906060518 | 73 | 253 | 0.0 | 0.0 | 0.00 | 0.00 | 0.00 | 48 | 1017.2 |
| 20260906055003 | 73 | 253 | 0.0 | 0.0 | 0.00 | 0.00 | 0.00 | 48 | 1017.3 |
| 20260906054455 | 73 | 253 | 0.0 | 0.0 | 0.00 | 0.00 | 0.00 | 48 | 1017.5 |
| 20260906053949 | 73 | 253 | 0.0 | 0.0 | 0.00 | 0.00 | 0.00 | 47 | 1017.6 |
| 20260906053448 | 73 | 253 | 0.0 | 0.0 | 0.00 | 0.00 | 0.00 | 46 | 1017.8 |
| 20260906052446 | 73 | 253 | 0.0 | 0.0 | 0.00 | 0.00 | 0.00 | 46 | 1017.6 |
| 20260906051943 | 73 | 253 | 0.0 | 0.0 | 0.00 | 0.00 | 0.00 | 45 | 1017.6 |
| 20260906050439 | 73 | 253 | 0.0 | 0.0 | 0.00 | 0.00 | 0.00 | 45 | 1018.2 |
| 20260906045935 | 73 | 244 | 0.0 | 0.0 | 0.00 | 0.00 | 0.00 | 45 | 1018.2 |
| 20260906044429 | 73 | 242 | 0.0 | 0.0 | 0.00 | 0.00 | 0.00 | 44 | 1017.8 |
| 20260906043930 | 74 | 14 | 0.0 | 0.0 | 0.00 | 0.00 | 0.00 | 44 | 1017.8 |
| 20260906043429 | 74 | 14 | 0.0 | 0.0 | 0.00 | 0.00 | 0.00 | 43 | 1017.5 |
| 20260906042926 | 74 | 14 | 0.0 | 0.0 | 0.00 | 0.00 | 0.00 | 43 | 1017.3 |
| 20260906042426 | 74 | 14 | 0.0 | 0.0 | 0.00 | 0.00 | 0.00 | 42 | 1017.4 |
| 20260906041924 | 75 | 14 | 0.0 | 0.0 | 0.00 | 0.00 | 0.00 | 41 | 1017.4 |
| 20260906041424 | 75 | 14 | 0.0 | 0.0 | 0.00 | 0.00 | 0.00 | 40 | 1017.2 |
| 20260906040920 | 75 | 14 | 0.0 | 0.0 | 0.00 | 0.00 | 0.00 | 40 | 1016.9 |
| 20260906035420 | 76 | 14 | 0.0 | 0.0 | 0.00 | 0.00 | 0.00 | 39 | 1016.8 |
| 20260906034920 | 76 | 14 | 0.0 | 0.0 | 0.00 | 0.00 | 0.00 | 39 | 1016.8 |
| 20260906034419 | 77 | 14 | 0.0 | 0.0 | 0.00 | 0.00 | 0.00 | 38 | 1016.7 |
| 20260906033419 | 77 | 14 | 0.0 | 0.0 | 0.00 | 0.00 | 0.00 | 37 | 1016.7 |
| 20260906032920 | 78 | 14 | 0.0 | 0.0 | 0.00 | 0.00 | 0.00 | 37 | 1016.6 |
| 20260906032416 | 78 | 14 | 0.0 | 0.0 | 0.00 | 0.00 | 0.00 | 36 | 1016.6 |
| 20260906031915 | 78 | 14 | 0.0 | 0.0 | 0.00 | 0.00 | 0.00 | 36 | 1016.5 |
| 20260906031416 | 79 | 14 | 0.0 | 0.0 | 0.00 | 0.00 | 0.00 | 36 | 1016.5 |
| 20260906030915 | 79 | 14 | 0.0 | 0.0 | 0.00 | 0.00 | 0.00 | 35 | 1016.4 |
| 20260906030415 | 80 | 14 | 0.0 | 0.0 | 0.00 | 0.00 | 0.00 | 35 | 1016.2 |
| 20260906025416 | 80 | 14 | 0.0 | 0.0 | 0.00 | 0.00 | 0.00 | 34 | 1016.0 |
| 20260906024916 | 81 | 14 | 0.0 | 0.0 | 0.00 | 0.00 | 0.00 | 34 | 1016.1 |
| 20260906024416 | 81 | 14 | 0.0 | 0.0 | 0.00 | 0.00 | 0.00 | 33 | 1016.0 |
| 20260906023909 | 81 | 13 | 0.0 | 1.0 | 0.00 | 0.00 | 0.00 | 32 | 1015.9 |
| 20260906023405 | 81 | 327 | 0.0 | 1.0 | 0.00 | 0.00 | 0.00 | 32 | 1015.9 |
| 20260906022906 | 82 | 355 | 0.0 | 3.0 | 0.00 | 0.00 | 0.00 | 32 | 1015.8 |
| 20260906022406 | 82 | 340 | 0.0 | 3.0 | 0.00 | 0.00 | 0.00 | 32 | 1015.8 |
| 20260906021907 | 82 | 327 | 0.0 | 3.0 | 0.00 | 0.00 | 0.00 | 32 | 1015.7 |
| 20260906021404 | 82 | 345 | 0.0 | 1.0 | 0.00 | 0.00 | 0.00 | 32 | 1015.8 |
| 20260906020903 | 83 | 330 | 0.0 | 1.0 | 0.00 | 0.00 | 0.00 | 31 | 1015.7 |
| 20260906020403 | 83 | 326 | 0.0 | 1.0 | 0.00 | 0.00 | 0.00 | 30 | 1015.5 |
| 20260906015402 | 84 | 311 | 0.0 | 3.0 | 0.00 | 0.00 | 0.00 | 30 | 1015.4 |
| 20260906014901 | 84 | 348 | 0.0 | 3.0 | 0.00 | 0.00 | 0.00 | 29 | 1015.3 |
| 20260906014402 | 85 | 355 | 0.0 | 0.0 | 0.00 | 0.00 | 0.00 | 29 | 1015.3 |
| 20260906013901 | 85 | 327 | 0.0 | 0.0 | 0.00 | 0.00 | 0.00 | 28 | 1015.2 |
| 20260906013359 | 85 | 320 | 0.0 | 1.0 | 0.00 | 0.00 | 0.00 | 28 | 1015.2 |
| 20260906012900 | 86 | 0 | 0.0 | 1.0 | 0.00 | 0.00 | 0.00 | 27 | 1015.2 |
| 20260906012359 | 86 | 349 | 0.0 | 1.0 | 0.00 | 0.00 | 0.00 | 27 | 1015.1 |
| 20260906010859 | 88 | 0 | 0.0 | 1.0 | 0.00 | 0.00 | 0.00 | 26 | 1015.1 |
| 20260906010354 | 88 | 282 | 0.0 | 0.0 | 0.00 | 0.00 | 0.00 | 25 | 1015.0 |
| 20260906005848 | 89 | 285 | 0.0 | 0.0 | 0.00 | 0.00 | 0.00 | 25 | 1015.0 |
| 20260906005341 | 89 | 284 | 0.0 | 0.0 | 0.00 | 0.00 | 0.00 | 25 | 1015.1 |
| 20260906004834 | 89 | 280 | 0.0 | 0.0 | 0.00 | 0.00 | 0.00 | 25 | 1015.0 |
| 20260906004329 | 90 | 280 | 0.0 | 0.0 | 0.00 | 0.00 | 0.00 | 25 | 1015.0 |
| 20260906003824 | 90 | 280 | 0.0 | 0.0 | 0.00 | 0.00 | 0.00 | 25 | 1015.0 |
| 20260906003316 | 90 | 280 | 0.0 | 0.0 | 0.00 | 0.00 | 0.00 | 25 | 1015.0 |
| 20260906002811 | 91 | 280 | 0.0 | 0.0 | 0.00 | 0.00 | 0.00 | 25 | 1015.0 |
| 20260906002306 | 91 | 280 | 0.0 | 0.0 | 0.00 | 0.00 | 0.00 | 25 | 1014.8 |
| 20260906001759 | 91 | 280 | 0.0 | 0.0 | 0.00 | 0.00 | 0.00 | 24 | 1014.8 |
| 20260906001254 | 92 | 280 | 0.0 | 0.0 | 0.00 | 0.00 | 0.00 | 23 | 1014.8 |
| 20260906000241 | 92 | 280 | 0.0 | 0.0 | 0.00 | 0.00 | 0.00 | 23 | 1014.8 |
| 20260905235735 | 92 | 280 | 0.0 | 0.0 | 0.00 | 0.00 | 0.00 | 23 | 1014.7 |
| 20260905234723 | 92 | 280 | 0.0 | 0.0 | 0.00 | 0.00 | 0.00 | 22 | 1014.6 |
| 20260905234217 | 92 | 280 | 0.0 | 0.0 | 0.00 | 0.00 | 0.00 | 22 | 1014.6 |
| 20260905233711 | 92 | 280 | 0.0 | 0.0 | 0.00 | 0.00 | 0.00 | 23 | 1014.6 |
| 20260905233206 | 92 | 280 | 0.0 | 0.0 | 0.00 | 0.00 | 0.00 | 22 | 1014.6 |
| 20260905232659 | 92 | 280 | 0.0 | 0.0 | 0.00 | 0.00 | 0.00 | 23 | 1014.6 |
| 20260905232154 | 92 | 280 | 0.0 | 0.0 | 0.00 | 0.00 | 0.00 | 26 | 1014.6 |
| 20260905231648 | 92 | 280 | 0.0 | 0.0 | 0.00 | 0.00 | 0.00 | 25 | 1014.6 |
| 20260905231142 | 92 | 280 | 0.0 | 0.0 | 0.00 | 0.00 | 0.00 | 23 | 1014.6 |
| 20260905230634 | 91 | 280 | 0.0 | 0.0 | 0.00 | 0.00 | 0.00 | 22 | 1014.6 |
| 20260905230129 | 91 | 280 | 0.0 | 0.0 | 0.00 | 0.00 | 0.00 | 27 | 1014.6 |
| 20260905225623 | 92 | 280 | 0.0 | 0.0 | 0.00 | 0.00 | 0.00 | 25 | 1014.6 |
| 20260905225118 | 92 | 280 | 0.0 | 0.0 | 0.00 | 0.00 | 0.00 | 22 | 1014.5 |
| 20260905224612 | 93 | 280 | 0.0 | 0.0 | 0.00 | 0.00 | 0.00 | 24 | 1014.5 |
| 20260905223600 | 92 | 280 | 0.0 | 0.0 | 0.00 | 0.00 | 0.00 | 22 | 1014.5 |
| 20260905222547 | 93 | 279 | 0.0 | 0.0 | 0.00 | 0.00 | 0.00 | 25 | 1014.5 |
| 20260905222043 | 92 | 281 | 0.0 | 0.0 | 0.00 | 0.00 | 0.00 | 23 | 1014.5 |
| 20260905221536 | 93 | 284 | 0.0 | 0.0 | 0.00 | 0.00 | 0.00 | 24 | 1014.6 |
| 20260905220522 | 92 | 279 | 0.0 | 0.0 | 0.00 | 0.00 | 0.00 | 25 | 1014.7 |
| 20260905220018 | 92 | 279 | 0.0 | 0.0 | 0.00 | 0.00 | 0.00 | 24 | 1014.7 |
| 20260905215512 | 91 | 279 | 0.0 | 0.0 | 0.00 | 0.00 | 0.00 | 25 | 1015.0 |
| 20260905215006 | 90 | 279 | 0.0 | 0.0 | 0.00 | 0.00 | 0.00 | 24 | 1015.1 |
| 20260905214459 | 91 | 279 | 0.0 | 1.0 | 0.00 | 0.00 | 0.00 | 24 | 1015.1 |
| 20260905213952 | 91 | 279 | 0.0 | 1.0 | 0.00 | 0.00 | 0.00 | 23 | 1015.1 |
| 20260905213446 | 91 | 333 | 0.0 | 0.0 | 0.00 | 0.00 | 0.00 | 25 | 1015.1 |
| 20260905212941 | 91 | 332 | 0.0 | 0.0 | 0.00 | 0.00 | 0.00 | 23 | 1015.2 |
| 20260905211928 | 92 | 0 | 0.0 | 0.0 | 0.00 | 0.00 | 0.00 | 23 | 1015.2 |
| 20260905211423 | 92 | 44 | 0.0 | 0.0 | 0.00 | 0.00 | 0.00 | 27 | 1015.3 |
| 20260905210411 | 92 | 67 | 0.0 | 0.0 | 0.00 | 0.00 | 0.00 | 24 | 1015.4 |
| 20260905205906 | 92 | 67 | 0.0 | 0.0 | 0.00 | 0.00 | 0.00 | 25 | 1015.5 |
| 20260905205400 | 92 | 66 | 0.0 | 0.0 | 0.00 | 0.00 | 0.00 | 25 | 1015.5 |
| 20260905204854 | 92 | 67 | 0.0 | 0.0 | 0.00 | 0.00 | 0.00 | 25 | 1015.5 |
| 20260905204347 | 92 | 346 | 0.0 | 0.0 | 0.00 | 0.00 | 0.00 | 24 | 1015.5 |
| 20260905203338 | 91 | 316 | 0.0 | 3.0 | 0.00 | 0.00 | 0.00 | 24 | 1015.8 |
| 20260905202839 | 92 | 269 | 0.0 | 3.0 | 0.00 | 0.00 | 0.00 | 26 | 1015.9 |
| 20260905202338 | 92 | 67 | 0.0 | 1.0 | 0.00 | 0.00 | 0.00 | 29 | 1016.0 |
| 20260905201839 | 91 | 88 | 0.0 | 1.0 | 0.00 | 0.00 | 0.00 | 26 | 1015.9 |
| 20260905201337 | 91 | 93 | 0.0 | 1.0 | 0.00 | 0.00 | 0.00 | 25 | 1016.0 |
| 20260905200836 | 91 | 88 | 0.0 | 1.0 | 0.00 | 0.00 | 0.00 | 28 | 1016.0 |
| 20260905200334 | 91 | 15 | 0.0 | 1.0 | 0.00 | 0.00 | 0.00 | 27 | 1016.1 |
| 20260905195838 | 91 | 44 | 0.0 | 1.0 | 0.00 | 0.00 | 0.00 | 29 | 1016.1 |
| 20260905195333 | 91 | 56 | 0.0 | 4.0 | 0.00 | 0.00 | 0.00 | 27 | 1016.1 |
| 20260905194333 | 89 | 65 | 0.0 | 0.0 | 0.00 | 0.00 | 0.00 | 29 | 1016.4 |
| 20260905193832 | 89 | 42 | 0.0 | 2.0 | 0.00 | 0.00 | 0.00 | 28 | 1016.4 |
| 20260905193333 | 89 | 51 | 0.0 | 2.0 | 0.00 | 0.00 | 0.00 | 28 | 1016.5 |
| 20260905192830 | 89 | 77 | 0.0 | 0.0 | 0.00 | 0.00 | 0.00 | 28 | 1016.5 |
| 20260905191829 | 89 | 74 | 0.0 | 0.0 | 0.00 | 0.00 | 0.00 | 28 | 1016.6 |
| 20260905191329 | 89 | 56 | 0.0 | 0.0 | 0.00 | 0.00 | 0.00 | 27 | 1016.6 |
| 20260905190327 | 88 | 51 | 0.0 | 0.0 | 0.00 | 0.00 | 0.00 | 29 | 1016.7 |
| 20260905185826 | 88 | 60 | 0.0 | 1.0 | 0.00 | 0.00 | 0.00 | 28 | 1016.7 |
| 20260905185328 | 87 | 72 | 0.0 | 1.0 | 0.00 | 0.00 | 0.00 | 29 | 1016.8 |
| 20260905184826 | 87 | 111 | 0.0 | 0.0 | 0.00 | 0.00 | 0.00 | 30 | 1016.8 |
| 20260905184326 | 86 | 107 | 0.0 | 0.0 | 0.00 | 0.00 | 0.00 | 31 | 1016.9 |
| 20260905183827 | 86 | 71 | 0.0 | 0.0 | 0.00 | 0.00 | 0.00 | 30 | 1017.1 |
| 20260905182826 | 85 | 78 | 0.0 | 0.0 | 0.00 | 0.00 | 0.00 | 30 | 1017.2 |
| 20260905182327 | 85 | 87 | 0.0 | 0.0 | 0.00 | 0.00 | 0.00 | 31 | 1017.2 |
| 20260905180822 | 84 | 87 | 0.0 | 0.0 | 0.00 | 0.00 | 0.00 | 34 | 1017.5 |
| 20260905180323 | 84 | 88 | 0.0 | 0.0 | 0.00 | 0.00 | 0.00 | 36 | 1017.6 |
| 20260905175822 | 84 | 88 | 0.0 | 0.0 | 0.00 | 0.00 | 0.00 | 34 | 1017.6 |
| 20260905175326 | 84 | 88 | 0.0 | 0.0 | 0.00 | 0.00 | 0.00 | 35 | 1017.8 |
| 20260905174825 | 84 | 88 | 0.0 | 0.0 | 0.00 | 0.00 | 0.00 | 33 | 1017.9 |
| 20260905174325 | 84 | 88 | 0.0 | 0.0 | 0.00 | 0.00 | 0.00 | 35 | 1017.9 |
| 20260905173825 | 84 | 88 | 0.0 | 0.0 | 0.00 | 0.00 | 0.00 | 32 | 1017.8 |
| 20260905173321 | 84 | 88 | 0.0 | 0.0 | 0.00 | 0.00 | 0.00 | 35 | 1017.8 |
| 20260905172821 | 83 | 86 | 0.0 | 0.0 | 0.00 | 0.00 | 0.00 | 36 | 1017.6 |
| 20260905172321 | 83 | 86 | 0.0 | 0.0 | 0.00 | 0.00 | 0.00 | 37 | 1017.6 |
| 20260905171818 | 83 | 83 | 0.0 | 0.0 | 0.00 | 0.00 | 0.00 | 36 | 1017.8 |
| 20260905171318 | 82 | 74 | 0.0 | 0.0 | 0.00 | 0.00 | 0.00 | 35 | 1017.8 |
| 20260905170820 | 82 | 75 | 0.0 | 0.0 | 0.00 | 0.00 | 0.00 | 36 | 1017.8 |
| 20260905165814 | 81 | 244 | 0.0 | 0.0 | 0.00 | 0.00 | 0.00 | 37 | 1017.6 |
| 20260905165313 | 81 | 244 | 0.0 | 0.0 | 0.00 | 0.00 | 0.00 | 37 | 1017.6 |
| 20260905164810 | 80 | 244 | 0.0 | 0.0 | 0.00 | 0.00 | 0.00 | 37 | 1017.6 |
| 20260905163806 | 80 | 244 | 0.0 | 0.0 | 0.00 | 0.00 | 0.00 | 41 | 1017.8 |
| 20260905162804 | 79 | 246 | 0.0 | 0.0 | 0.00 | 0.00 | 0.00 | 41 | 1017.8 |
| 20260905162301 | 79 | 228 | 0.0 | 0.0 | 0.00 | 0.00 | 0.00 | 41 | 1017.8 |
| 20260905161800 | 78 | 228 | 0.0 | 0.0 | 0.00 | 0.00 | 0.00 | 41 | 1017.8 |
| 20260905161301 | 78 | 227 | 0.0 | 0.0 | 0.00 | 0.00 | 0.00 | 41 | 1017.8 |
| 20260905160801 | 78 | 232 | 0.0 | 0.0 | 0.00 | 0.00 | 0.00 | 41 | 1017.6 |
| 20260905160256 | 78 | 232 | 0.0 | 0.0 | 0.00 | 0.00 | 0.00 | 40 | 1017.6 |
| 20260905155758 | 77 | 232 | 0.0 | 0.0 | 0.00 | 0.00 | 0.00 | 41 | 1017.6 |
| 20260905155256 | 77 | 234 | 0.0 | 0.0 | 0.00 | 0.00 | 0.00 | 42 | 1017.8 |
| 20260905154754 | 77 | 234 | 0.0 | 0.0 | 0.00 | 0.00 | 0.00 | 41 | 1017.8 |
| 20260905154254 | 76 | 233 | 0.0 | 0.0 | 0.00 | 0.00 | 0.00 | 43 | 1017.8 |
| 20260905153754 | 76 | 233 | 0.0 | 0.0 | 0.00 | 0.00 | 0.00 | 43 | 1017.6 |
| 20260905153254 | 75 | 233 | 0.0 | 0.0 | 0.00 | 0.00 | 0.00 | 43 | 1017.8 |
| 20260905152255 | 74 | 233 | 0.0 | 0.0 | 0.00 | 0.00 | 0.00 | 46 | 1017.8 |
| 20260905151254 | 73 | 233 | 0.0 | 0.0 | 0.00 | 0.00 | 0.00 | 47 | 1017.8 |
| 20260905150752 | 73 | 233 | 0.0 | 0.0 | 0.00 | 0.00 | 0.00 | 48 | 1017.8 |
| 20260905145239 | 71 | 233 | 0.0 | 0.0 | 0.00 | 0.00 | 0.00 | 55 | 1017.6 |
| 20260905144734 | 70 | 233 | 0.0 | 0.0 | 0.00 | 0.00 | 0.00 | 56 | 1017.6 |
| 20260905143722 | 69 | 232 | 0.0 | 0.0 | 0.00 | 0.00 | 0.00 | 60 | 1017.8 |
| 20260905143216 | 68 | 232 | 0.0 | 0.0 | 0.00 | 0.00 | 0.00 | 60 | 1017.8 |
| 20260905142205 | 67 | 232 | 0.0 | 0.0 | 0.00 | 0.00 | 0.00 | 62 | 1017.6 |
| 20260905141658 | 66 | 232 | 0.0 | 0.0 | 0.00 | 0.00 | 0.00 | 63 | 1017.5 |
| 20260905141153 | 66 | 232 | 0.0 | 0.0 | 0.00 | 0.00 | 0.00 | 63 | 1017.4 |
| 20260905140140 | 65 | 232 | 0.0 | 0.0 | 0.00 | 0.00 | 0.00 | 65 | 1017.3 |
| 20260905135634 | 64 | 232 | 0.0 | 0.0 | 0.00 | 0.00 | 0.00 | 67 | 1017.3 |
| 20260905134622 | 63 | 228 | 0.0 | 0.0 | 0.00 | 0.00 | 0.00 | 68 | 1017.2 |
| 20260905134115 | 63 | 228 | 0.0 | 0.0 | 0.00 | 0.00 | 0.00 | 68 | 1017.3 |
| 20260905133103 | 63 | 227 | 0.0 | 0.0 | 0.00 | 0.00 | 0.00 | 68 | 1017.2 |
| 20260905132557 | 63 | 228 | 0.0 | 0.0 | 0.00 | 0.00 | 0.00 | 69 | 1017.2 |
| 20260905132052 | 62 | 228 | 0.0 | 0.0 | 0.00 | 0.00 | 0.00 | 68 | 1017.1 |
| 20260905131546 | 62 | 228 | 0.0 | 0.0 | 0.00 | 0.00 | 0.00 | 68 | 1017.1 |
| 20260905131041 | 62 | 227 | 0.0 | 0.0 | 0.00 | 0.00 | 0.00 | 68 | 1017.1 |
| 20260905130535 | 62 | 227 | 0.0 | 0.0 | 0.00 | 0.00 | 0.00 | 68 | 1016.9 |
| 20260905130030 | 62 | 227 | 0.0 | 0.0 | 0.00 | 0.00 | 0.00 | 67 | 1016.8 |
| 20260905125525 | 62 | 227 | 0.0 | 0.0 | 0.00 | 0.00 | 0.00 | 67 | 1016.8 |
| 20260905125017 | 63 | 228 | 0.0 | 0.0 | 0.00 | 0.00 | 0.00 | 67 | 1016.7 |
| 20260905124509 | 63 | 227 | 0.0 | 0.0 | 0.00 | 0.00 | 0.00 | 66 | 1016.7 |
| 20260905124005 | 63 | 227 | 0.0 | 0.0 | 0.00 | 0.00 | 0.00 | 66 | 1016.7 |
| 20260905122954 | 63 | 227 | 0.0 | 0.0 | 0.00 | 0.00 | 0.00 | 65 | 1016.6 |
| 20260905122445 | 63 | 227 | 0.0 | 0.0 | 0.00 | 0.00 | 0.00 | 65 | 1016.6 |
| 20260905121939 | 63 | 227 | 0.0 | 0.0 | 0.00 | 0.00 | 0.00 | 64 | 1016.5 |
| 20260905121434 | 63 | 227 | 0.0 | 0.0 | 0.00 | 0.00 | 0.00 | 64 | 1016.5 |
| 20260905120928 | 63 | 227 | 0.0 | 0.0 | 0.00 | 0.00 | 0.00 | 63 | 1016.5 |
| 20260905120423 | 63 | 227 | 0.0 | 0.0 | 0.00 | 0.00 | 0.00 | 64 | 1016.5 |
| 20260905115916 | 63 | 227 | 0.0 | 0.0 | 0.00 | 0.00 | 0.00 | 63 | 1016.5 |
| 20260905115410 | 63 | 227 | 0.0 | 0.0 | 0.00 | 0.00 | 0.00 | 63 | 1016.5 |
| 20260905114904 | 63 | 227 | 0.0 | 0.0 | 0.00 | 0.00 | 0.00 | 63 | 1016.5 |
| 20260905114358 | 63 | 227 | 0.0 | 0.0 | 0.00 | 0.00 | 0.00 | 63 | 1016.5 |
| 20260905113852 | 64 | 227 | 0.0 | 0.0 | 0.00 | 0.00 | 0.00 | 63 | 1016.5 |
| 20260905113347 | 64 | 227 | 0.0 | 0.0 | 0.00 | 0.00 | 0.00 | 63 | 1016.4 |
| 20260905112840 | 64 | 227 | 0.0 | 0.0 | 0.00 | 0.00 | 0.00 | 63 | 1016.4 |
| 20260905112334 | 64 | 227 | 0.0 | 0.0 | 0.00 | 0.00 | 0.00 | 63 | 1016.4 |
| 20260905111828 | 64 | 227 | 0.0 | 0.0 | 0.00 | 0.00 | 0.00 | 63 | 1016.4 |
| 20260905110817 | 65 | 227 | 0.0 | 0.0 | 0.00 | 0.00 | 0.00 | 63 | 1016.2 |
| 20260905110310 | 65 | 227 | 0.0 | 0.0 | 0.00 | 0.00 | 0.00 | 63 | 1016.4 |
| 20260905105257 | 65 | 227 | 0.0 | 0.0 | 0.00 | 0.00 | 0.00 | 63 | 1016.2 |
| 20260905104752 | 65 | 227 | 0.0 | 0.0 | 0.00 | 0.00 | 0.00 | 62 | 1016.2 |
| 20260905104245 | 66 | 0 | 0.0 | 0.0 | 0.00 | 0.00 | 0.00 | 61 | 1016.1 |
| 20260905103741 | 66 | 227 | 0.0 | 0.0 | 0.00 | 0.00 | 0.00 | 61 | 1016.1 |
| 20260905102738 | 66 | 227 | 0.0 | 0.0 | 0.00 | 0.00 | 0.00 | 59 | 1016.1 |
| 20260905102237 | 66 | 227 | 0.0 | 0.0 | 0.00 | 0.00 | 0.00 | 59 | 1016.1 |
| 20260905101231 | 67 | 227 | 0.0 | 0.0 | 0.00 | 0.00 | 0.00 | 58 | 1016.2 |
| 20260905100729 | 67 | 227 | 0.0 | 0.0 | 0.00 | 0.00 | 0.00 | 58 | 1016.1 |
| 20260905100228 | 67 | 227 | 0.0 | 0.0 | 0.00 | 0.00 | 0.00 | 58 | 1016.1 |
| 20260905095227 | 67 | 227 | 0.0 | 0.0 | 0.00 | 0.00 | 0.00 | 56 | 1016.0 |
| 20260905094726 | 68 | 227 | 0.0 | 0.0 | 0.00 | 0.00 | 0.00 | 55 | 1016.0 |
| 20260905093726 | 68 | 227 | 0.0 | 0.0 | 0.00 | 0.00 | 0.00 | 55 | 1015.9 |
| 20260905092722 | 68 | 227 | 0.0 | 0.0 | 0.00 | 0.00 | 0.00 | 54 | 1015.8 |
| 20260905091721 | 69 | 227 | 0.0 | 0.0 | 0.00 | 0.00 | 0.00 | 54 | 1015.8 |
| 20260905090722 | 69 | 227 | 0.0 | 0.0 | 0.00 | 0.00 | 0.00 | 53 | 1015.9 |
| 20260905090222 | 69 | 227 | 0.0 | 0.0 | 0.00 | 0.00 | 0.00 | 53 | 1015.9 |
| 20260905085721 | 69 | 227 | 0.0 | 0.0 | 0.00 | 0.00 | 0.00 | 52 | 1015.8 |
| 20260905085222 | 69 | 227 | 0.0 | 0.0 | 0.00 | 0.00 | 0.00 | 52 | 1015.7 |
| 20260905084721 | 69 | 227 | 0.0 | 0.0 | 0.00 | 0.00 | 0.00 | 52 | 1015.7 |
| 20260905084219 | 69 | 227 | 0.0 | 0.0 | 0.00 | 0.00 | 0.00 | 52 | 1015.5 |
| 20260905083718 | 69 | 227 | 0.0 | 0.0 | 0.00 | 0.00 | 0.00 | 52 | 1015.4 |
| 20260905083217 | 69 | 227 | 0.0 | 0.0 | 0.00 | 0.00 | 0.00 | 53 | 1015.5 |
| 20260905082717 | 69 | 227 | 0.0 | 0.0 | 0.00 | 0.00 | 0.00 | 52 | 1015.5 |
| 20260905082218 | 69 | 227 | 0.0 | 0.0 | 0.00 | 0.00 | 0.00 | 52 | 1015.5 |
| 20260905081220 | 70 | 227 | 0.0 | 0.0 | 0.00 | 0.00 | 0.00 | 52 | 1015.4 |
| 20260905080220 | 70 | 226 | 0.0 | 0.0 | 0.00 | 0.00 | 0.00 | 52 | 1015.4 |
| 20260905075714 | 70 | 226 | 0.0 | 0.0 | 0.00 | 0.00 | 0.00 | 51 | 1015.5 |
| 20260905075208 | 70 | 226 | 0.0 | 0.0 | 0.00 | 0.00 | 0.00 | 51 | 1015.5 |
| 20260905074701 | 70 | 226 | 0.0 | 0.0 | 0.00 | 0.00 | 0.00 | 51 | 1015.5 |
| 20260905074154 | 71 | 225 | 0.0 | 0.0 | 0.00 | 0.00 | 0.00 | 51 | 1015.7 |
| 20260905073648 | 71 | 225 | 0.0 | 0.0 | 0.00 | 0.00 | 0.00 | 51 | 1015.7 |
| 20260905073143 | 71 | 225 | 0.0 | 0.0 | 0.00 | 0.00 | 0.00 | 50 | 1015.5 |
| 20260905072637 | 71 | 225 | 0.0 | 0.0 | 0.00 | 0.00 | 0.00 | 50 | 1015.5 |
| 20260905072133 | 71 | 225 | 0.0 | 0.0 | 0.00 | 0.00 | 0.00 | 50 | 1015.7 |
| 20260905071626 | 71 | 225 | 0.0 | 0.0 | 0.00 | 0.00 | 0.00 | 50 | 1015.5 |
| 20260905071119 | 71 | 225 | 0.0 | 0.0 | 0.00 | 0.00 | 0.00 | 50 | 1015.5 |
| 20260905070613 | 71 | 225 | 0.0 | 0.0 | 0.00 | 0.00 | 0.00 | 50 | 1015.5 |
| 20260905070108 | 71 | 225 | 0.0 | 0.0 | 0.00 | 0.00 | 0.00 | 49 | 1015.5 |
| 20260905065601 | 72 | 225 | 0.0 | 0.0 | 0.00 | 0.00 | 0.00 | 49 | 1015.5 |
| 20260905065056 | 72 | 225 | 0.0 | 0.0 | 0.00 | 0.00 | 0.00 | 49 | 1015.5 |
| 20260905064549 | 72 | 225 | 0.0 | 0.0 | 0.00 | 0.00 | 0.00 | 49 | 1015.4 |
| 20260905064043 | 72 | 225 | 0.0 | 0.0 | 0.00 | 0.00 | 0.00 | 49 | 1015.4 |
| 20260905063538 | 73 | 224 | 0.0 | 0.0 | 0.00 | 0.00 | 0.00 | 48 | 1015.4 |
| 20260905063031 | 73 | 225 | 0.0 | 0.0 | 0.00 | 0.00 | 0.00 | 48 | 1015.3 |
| 20260905062525 | 73 | 225 | 0.0 | 0.0 | 0.00 | 0.00 | 0.00 | 48 | 1015.3 |